CZ-6A DEB, 60900

Orbit data source: Space-Track

CZ-6A DEB, 60900 is space debris in LEO originally from a launch on Tue, 06 Aug 2024 UTC launched from the Taiyaun Space Center, China (TSC). Debris objects in space refer to the collection of defunct objects orbiting the Earth. Examples of debris include non-operational satellites, rocket bodies, and fragments generated from explosions, collisions, or faulty payload assembly.

Loading next visibility...
Identifier
60900, 2024-140LF
Orbit
LEO
Country
Flag of CNCN / PRC
Related business
Manufacturer
SAST
Mission
Spacecraft
Bus & Motor
Unknown
Mass
Unknown
Launch date (UTC)
2024-08-06 (1 year ago)
Launch vehicle
Unknown
Launch site
Taiyaun Space Center, China (TSC)
Object type
Payload
Rocket body
Debris
Shape & HBR
Unknown shape, 0.1 m
Radar Cross Section
Small (<0.1 m²)

Expand to show TLE details & history
Last TLE update: 9 hours ago

TLE from 9 hours ago
0 CZ-6A DEB
1 60900U 24140LF  25343.11486889  .00000557  00000-0  22682-3 0  9998
2 60900  88.9161 290.7251 0018155  35.5175 324.7223 14.26040548 68069
Epoch: 2025-12-09T02:45Z
TLE epoch observation values (Epoch: 2025-12-09T02:45:24.672Z)
Latitude
-0°
Longitude
171.26811°
Altitude
797.417 km
Speed
7.46 km/s
True Right ascension
19h 22m 54s
True Declination
0° 00' 00"
Sunlit
Object was in daylight at epoch
Visualization orbit readout
Latitude
Unknown
Longitude
Unknown
Altitude
Unknown
Speed
Unknown
Apparent Right ascension
Unknown
Apparent Declination
Unknown
Sunlit
N/A
Visualization observer readout
Local Sidereal Time
10:18:41
Azimuth
Unknown
Elevation
Unknown
Doppler factor
Unknown
Orbital elements
Apogee altitude
814.975 km
Perigee altitude
788.904 km
Semi-major axis
7,180.076 km
Eccentricity
0.00182
Inclination
88.9161°
RAAN
290.7251°
Arg. of periapsis
35.5175°
True anomaly
324.60193°
Mean anomaly
324.7223°
Eccentric anomaly
324.66213°
Mean motion
3.56738 °/min
Orbital period
100.91 mins
BSTAR
0.00022682
Loading maneuver chart data...
Computing Atmospheric mass density...

Documentation

Showing up to 5 results
|